Temp
11 12 11 11 11 11 11 11 10 10 10 10 9 9 7 6 4 4 4 3 3 1 1 2 2 -3 -5 -4 0 -4 -4 -5 -5 -3 -2 -3 -3 -4 -4 -3 -5 -3 -6 -6 -8 -7 0 -6 -2 -0 -1 -7 -5 -6
12 12 11 11 11 11 11 11 11 10 10 10 9 8 7 6 4 3 3 2 2 1 2 2 2 2 3 2 -2 -8 -3 -5 -4 -5 -7 -8 -3 -8 -6 -1 -1 -2 -1 -2 -2 0 -4 -4 -3 -5 -10 -7 -7 -7
11 12 12 11 11 11 11 11 11 11 10 10 9 9 8 7 4 3 3 2 1 -0 1 -0 -0 0 0 1 2 -1 -6 -5 -8 -9 -8 -8 -4 -2 -4 -4 -5 -3 -6 -4 -1 -2 -4 -3 -2 -7 -7 -6 -3 -4
11 11 12 11 11 11 11 11 11 11 11 10 10 9 9 6 3 3 3 3 2 0 1 0 -1 -1 -1 -1 -0 0 -1 -3 -5 -11 -10 -10 -4 -3 -3 -3 -4 -3 -6 -7 -5 -3 -3 -5 -5 -3 -4 -6 -4 -4
11 11 11 11 11 11 11 11 11 11 11 10 10 9 8 6 4 3 3 3 2 3 3 2 -1 -3 -3 -2 -2 -2 -1 -7 -7 -6 -7 -5 -4 -4 -7 -7 -6 -6 -4 -3 -2 -3 -4 -3 -6 -4 -8 -6 -6 -6
11 11 11 11 11 11 11 11 11 11 11 11 10 10 8 5 4 3 1 1 1 1 0 2 -3 -3 -4 -3 -3 -4 -3 -4 -5 -5 -5 -6 -8 -5 -7 -6 -4 -7 -9 -10 -3 -9 -9 -6 -6 -5 -6 -6 -9 -10
11 10 11 11 11 11 11 11 11 11 11 11 10 10 7 5 4 3 3 2 1 1 0 1 -3 -4 -4 -3 -4 -4 -4 -5 -4 -5 -5 -5 -5 -7 -10 -6 -4 -7 -4 -4 -7 -9 -5 -7 -4 -8 -8 -6 -4 -4
11 10 10 11 11 11 11 11 11 11 10 10 10 8 5 3 3 2 1 1 1 -0 -1 -0 -1 -3 -4 -5 -5 -5 -5 -5 -5 -5 -6 -5 -6 -7 -5 -5 -5 -5 -6 -5 -6 -7 -5 -7 -7 -6 -5 -5 -6 -6
12 11 10 10 11 11 11 11 11 11 10 8 6 5 3 3 2 -0 -1 -1 -1 -1 0 -2 -2 1 -5 -6 -7 -6 -7 -6 -6 -6 -6 -5 -5 -5 -4 -6 -6 -5 -7 -4 -5 -5 -5 -5 -6 -6 -6 -6 -8 -6
12 12 11 10 10 10 11 11 11 10 8 7 5 3 2 -0 -1 -1 -2 -2 -2 -2 -3 -2 -3 -3 -6 -8 -8 -7 -7 -9 -9 -7 -7 -5 -5 -5 -5 -6 -7 -7 -8 -8 -7 -4 -5 -5 -5 -6 -7 -8 -9 -8
12 12 12 12 10 10 10 11 10 7 5 4 2 -0 -2 -1 -1 -2 -2 -2 -3 -3 -4 -3 -3 -4 -7 -5 -5 -5 -7 -7 -8 -7 -6 -7 -6 -5 -4 -5 -5 -7 -8 -8 -8 -6 -7 -7 -7 -8 -7 -7 -7 -7
12 11 12 12 10 10 10 11 7 7 5 5 1 -2 -2 -2 -2 -0 -0 -2 -2 0 -4 -3 -3 -5 -6 -7 -5 -7 -6 -7 -5 -6 -6 -6 -5 -3 -4 -4 -5 -5 -6 -6 -5 -7 -6 -8 -8 -9 -9 -9 -8 -7
11 11 10 11 11 10 9 9 7 7 4 3 0 -2 -1 -1 1 1 3 1 -0 -2 -4 -4 -4 -5 -7 -5 -5 -5 -6 -6 -6 -6 -5 -5 -5 -4 -4 -4 -4 -4 -4 -5 -6 -6 -7 -7 -7 -8 -9 -7 -8 -8
9 9 8 9 10 9 8 7 5 4 6 3 3 2 2 2 2 3 4 3 1 -1 -4 -4 -4 -3 -5 -4 -4 -4 -4 -5 -4 -5 -5 -5 -6 -6 -6 -7 -7 -7 -7 -7 -6 -5 -7 -8 -8 -7 -8 -8 -9 -10
8 8 8 7 8 8 7 6 5 5 5 5 3 5 3 4 1 1 0 0 -2 -3 -2 -3 -4 -4 -4 -3 -4 -4 -4 -4 -3 -2 -5 -8 -8 -8 -9 -9 -9 -9 -9 -9 -8 -7 -7 -8 -8 -8 -9 -9 -10 -11
8 7 7 7 7 7 7 4 3 4 3 5 3 4 3 3 2 1 2 -1 -3 -2 -2 -2 -3 -3 -3 -4 -4 -4 -3 -3 -5 -7 -9 -9 -9 -10 -10 -10 -10 -10 -11 -10 -10 -10 -10 -9 -10 -11 -11 -11 -11 -11
7 7 9 9 7 6 4 4 4 6 6 5 3 2 3 3 4 3 2 -1 -2 -1 0 -1 -1 -0 -3 -3 -3 -4 -5 -9 -10 -11 -11 -11 -11 -11 -12 -11 -12 -12 -12 -12 -11 -11 -11 -11 -11 -11 -11 -11 -11 -11
7 8 9 6 5 3 3 4 4 4 4 3 3 3 2 2 2 1 -2 -2 -1 -0 -0 1 -1 -1 -1 -1 -5 -11 -12 -12 -12 -13 -13 -12 -13 -13 -14 -13 -13 -13 -13 -13 -13 -13 -13 -12 -12 -12 -12 -12 -12 -12
7 7 6 5 4 4 4 2 2 3 3 2 -0 -1 -0 -1 -2 -2 -2 -2 -1 -2 -2 -2 -5 -8 -10 -12 -13 -13 -14 -15 -15 -15 -14 -14 -14 -14 -15 -14 -14 -14 -14 -14 -14 -14 -14 -14 -13 -14 -13 -13 -12 -12
6 6 4 3 4 3 2 0 -0 2 2 0 -1 -2 -3 -3 -3 -6 -8 -7 -9 -10 -13 -12 -13 -14 -14 -14 -15 -15 -16 -17 -16 -16 -15 -15 -15 -15 -16 -16 -16 -16 -15 -15 -15 -15 -14 -15 -15 -15 -14 -13 -13 -13
5 3 3 4 3 1 0 -0 -0 -1 -2 -2 -3 -3 -4 -4 -4 -6 -11 -12 -14 -15 -14 -15 -16 -16 -15 -16 -16 -17 -18 -18 -17 -17 -17 -16 -17 -17 -17 -17 -17 -17 -17 -17 -16 -17 -17 -16 -16 -16 -15 -14 -15 -14
3 3 2 2 0 -1 -2 -4 -2 -3 -3 -3 -3 -3 -3 -4 -7 -10 -13 -15 -16 -17 -17 -17 -17 -16 -16 -17 -17 -18 -18 -19 -19 -19 -18 -19 -19 -19 -18 -19 -19 -18 -19 -18 -18 -18 -18 -18 -16 -15 -15 -15 -15 -15
2 2 1 1 1 0 -3 -3 -2 -3 -1 -3 -3 -3 -6 -7 -10 -12 -15 -16 -17 -18 -18 -18 -18 -17 -18 -18 -18 -19 -20 -20 -20 -20 -21 -21 -21 -21 -21 -21 -20 -19 -19 -19 -19 -19 -19 -17 -18 -16 -16 -16 -15 -15
2 1 1 -0 0 -2 -3 -3 -3 -3 -3 -2 -3 -5 -7 -8 -12 -15 -16 -17 -18 -18 -19 -19 -19 -18 -18 -18 -19 -20 -21 -22 -22 -22 -23 -23 -22 -22 -23 -22 -21 -20 -20 -20 -20 -21 -20 -19 -18 -18 -17 -17 -16 -15
2 -1 -1 -2 -2 -2 -2 -2 -3 -2 -2 -3 -5 -6 -8 -10 -13 -15 -16 -18 -19 -19 -19 -20 -20 -19 -19 -20 -21 -22 -23 -23 -24 -24 -24 -24 -24 -24 -24 -23 -22 -21 -21 -21 -22 -21 -20 -20 -20 -18 -18 -17 -16 -15
-1 -4 -2 -2 -3 -1 -2 -2 -3 -3 -4 -6 -7 -8 -11 -13 -15 -17 -18 -19 -19 -20 -21 -21 -21 -21 -21 -23 -23 -23 -24 -24 -25 -25 -24 -24 -25 -25 -25 -24 -23 -22 -21 -22 -22 -21 -21 -20 -19 -19 -18 -18 -17 -16
-2 -4 -5 -7 -5 -4 -4 -5 -7 -8 -8 -8 -9 -8 -10 -14 -17 -18 -19 -20 -20 -22 -22 -22 -23 -24 -24 -24 -24 -24 -24 -24 -25 -25 -23 -23 -22 -23 -23 -24 -24 -23 -21 -21 -21 -21 -20 -20 -19 -19 -18 -18 -17 -17
-7 -7 -6 -9 -11 -12 -9 -11 -12 -13 -13 -14 -12 -16 -15 -16 -18 -19 -20 -21 -21 -21 -22 -23 -23 -24 -24 -24 -24 -24 -23 -24 -23 -23 -22 -21 -22 -22 -22 -22 -23 -22 -21 -20 -21 -20 -20 -19 -18 -17 -17 -18 -18 -18
-9 -8 -8 -11 -13 -15 -16 -15 -15 -17 -17 -16 -15 -18 -20 -20 -20 -21 -22 -21 -21 -22 -23 -23 -23 -24 -23 -23 -23 -23 -24 -24 -25 -28 -28 -26 -24 -22 -21 -21 -20 -20 -20 -20 -21 -20 -19 -17 -18 -17 -18 -19 -18 -18
-10 -10 -12 -15 -15 -17 -18 -18 -19 -19 -19 -19 -19 -20 -20 -21 -22 -22 -22 -22 -22 -23 -23 -23 -24 -24 -25 -25 -25 -23 -22 -24 -24 -25 -27 -26 -25 -23 -22 -21 -21 -20 -20 -20 -21 -21 -19 -19 -20 -19 -19 -19 -19 -18
-12 -11 -14 -15 -16 -18 -18 -18 -18 -19 -20 -21 -21 -22 -22 -24 -22 -22 -22 -23 -22 -22 -23 -23 -23 -23 -24 -24 -25 -26 -26 -23 -23 -24 -25 -24 -23 -22 -21 -20 -20 -20 -20 -20 -20 -20 -20 -21 -21 -20 -20 -20 -20 -20
-14 -14 -14 -16 -17 -18 -18 -19 -20 -21 -23 -23 -25 -29 -28 -26 -26 -23 -22 -22 -23 -22 -22 -23 -24 -24 -23 -22 -23 -23 -24 -24 -24 -24 -22 -22 -21 -20 -20 -19 -20 -20 -20 -20 -20 -20 -20 -21 -21 -21 -21 -21 -21 -21
-17 -17 -17 -17 -18 -19 -20 -23 -25 -26 -26 -27 -25 -27 -29 -26 -25 -22 -22 -22 -22 -23 -23 -23 -23 -23 -22 -22 -22 -23 -23 -22 -23 -23 -23 -20 -19 -18 -20 -20 -20 -20 -20 -20 -20 -21 -21 -21 -21 -22 -22 -22 -22 -22
Height
860 862 864 866 867 868 870 871 871 871 870 870 869 868 867 867 867 866 866 866 867 867 857 854 855 862 867 869 864 869 871 870 873 874 873 873 878 873 877 863 870 865 887 881 896 892 837 824 823 821 804 806 800 803
852 855 857 859 861 862 864 864 865 865 866 866 865 864 863 863 863 863 863 863 864 864 853 850 849 849 851 851 858 868 864 867 861 874 882 886 869 889 878 859 844 855 839 847 842 818 810 809 800 799 804 803 803 803
842 845 848 851 853 855 856 857 858 859 860 860 860 858 857 857 858 860 859 859 860 859 851 848 847 847 847 848 849 856 862 857 864 863 875 881 873 859 868 861 856 839 839 840 826 807 807 799 796 799 798 797 793 793
831 835 838 842 844 846 848 849 851 852 853 854 854 853 852 852 855 857 857 856 858 857 855 845 845 845 845 844 845 846 849 854 856 861 874 881 866 850 849 844 844 828 838 838 829 806 799 798 797 791 790 790 789 787
819 823 827 831 834 837 839 841 843 845 846 847 847 846 847 847 850 853 853 852 853 856 848 842 844 844 843 843 843 845 847 851 856 862 867 863 853 852 854 853 842 823 817 819 811 800 802 797 793 789 789 785 783 785
808 810 815 820 824 827 830 833 835 837 838 839 840 841 839 842 845 850 850 845 847 850 851 843 846 843 843 844 845 845 845 847 850 854 854 850 848 850 859 848 809 811 810 809 800 803 802 794 789 786 785 782 782 784
797 800 803 808 812 816 820 824 826 829 831 832 834 833 832 834 840 844 842 842 844 850 850 844 843 842 842 843 845 846 847 848 848 850 848 847 845 849 861 844 807 809 802 799 797 799 794 789 787 784 783 781 779 776
788 790 792 795 800 804 809 813 817 820 823 825 826 828 831 833 837 839 838 840 843 847 848 846 838 840 840 842 845 843 846 848 847 846 846 843 845 847 834 812 807 802 799 794 792 792 787 784 784 781 779 777 776 774
779 780 783 784 788 791 797 802 808 812 816 817 821 825 831 835 835 834 836 838 840 845 839 841 838 823 838 840 843 845 845 848 847 847 847 844 839 833 812 812 806 798 802 794 789 787 783 783 779 776 775 773 774 770
770 771 773 774 777 780 786 792 799 805 807 809 818 824 827 829 830 834 837 839 841 838 835 827 827 831 836 845 847 848 848 854 859 844 843 839 824 811 807 804 801 797 794 793 793 782 781 779 775 772 770 769 767 765
762 762 763 764 766 769 775 782 789 795 803 807 812 818 827 829 830 833 835 837 836 832 824 817 817 826 830 837 836 837 845 847 858 845 841 839 828 809 801 800 796 794 792 791 789 784 780 777 773 770 765 763 762 760
751 751 753 754 756 759 763 768 774 781 788 794 802 817 827 829 831 830 827 831 827 807 812 808 812 819 826 827 830 840 842 846 842 838 840 834 813 802 800 797 793 790 788 785 782 779 774 771 768 765 762 759 758 756
737 738 739 742 745 747 753 757 764 768 779 792 800 812 814 823 821 814 802 804 803 795 799 804 811 817 824 824 828 833 840 838 836 838 822 813 806 804 802 798 792 789 786 782 778 775 770 765 762 761 759 757 756 754
726 725 727 730 732 736 742 749 754 763 770 782 790 798 797 795 788 769 762 764 770 777 785 794 805 810 818 820 822 824 823 829 827 825 810 809 811 809 806 804 798 791 787 783 777 771 767 764 760 759 757 756 754 752
715 716 718 718 721 725 732 737 743 754 761 769 776 765 767 753 759 760 761 765 773 778 780 792 801 806 814 814 818 819 822 817 806 793 805 816 814 812 809 805 800 795 790 785 780 773 767 763 759 756 754 752 751 750
708 711 708 709 713 717 727 736 747 751 754 759 757 752 750 751 752 757 756 765 768 773 778 784 795 803 805 808 813 806 806 793 801 813 820 818 816 814 811 807 803 799 794 788 783 778 772 766 762 758 754 751 749 747
704 703 701 703 708 717 723 737 746 748 748 746 742 740 739 740 737 743 748 756 762 767 768 777 781 778 795 795 795 796 803 822 824 824 823 820 817 815 813 808 804 799 795 789 784 779 773 768 763 758 755 751 749 746
698 697 699 702 710 723 731 734 738 740 738 736 735 733 736 737 738 742 748 753 759 762 763 764 769 775 775 776 797 823 826 829 829 828 825 822 819 816 813 808 805 800 796 791 787 782 776 771 766 762 758 753 748 744
693 694 694 697 701 713 724 731 732 729 727 730 735 736 738 741 744 744 747 752 755 759 764 770 784 799 812 823 827 830 832 833 832 829 825 823 820 818 814 810 806 801 797 793 788 783 779 776 771 765 760 754 748 744
693 694 698 701 702 708 720 727 729 725 725 731 736 740 745 747 751 757 761 764 771 782 800 810 821 828 830 831 833 834 835 834 832 828 826 823 820 818 815 811 806 802 798 793 790 785 779 775 771 766 760 754 748 744
692 697 700 703 706 710 716 722 725 730 733 737 742 744 750 753 756 766 780 786 796 818 827 833 835 835 834 835 835 835 835 834 833 832 829 824 822 818 815 811 807 804 800 795 790 786 782 777 771 765 760 754 749 743
691 696 700 703 707 713 720 726 727 733 737 742 744 746 753 761 772 785 795 807 829 839 838 839 839 838 838 838 838 837 837 836 833 831 829 826 822 818 814 812 808 804 801 796 792 788 783 777 770 764 759 753 747 741
693 698 702 704 708 713 729 729 731 735 734 743 744 751 764 774 788 795 814 830 841 845 845 844 842 841 841 840 840 839 838 836 833 831 829 826 823 820 816 812 809 805 800 796 793 788 783 777 771 764 758 752 745 738
696 700 703 708 712 725 730 731 733 736 740 740 746 761 770 780 794 810 828 839 847 847 847 847 845 844 843 843 842 841 839 836 833 830 828 825 822 818 815 811 808 805 801 797 792 787 781 776 770 764 758 753 745 738
697 710 710 717 721 722 726 729 733 732 739 744 757 767 774 783 802 821 833 845 848 848 849 850 848 847 846 845 844 842 839 837 834 830 825 824 822 818 814 811 807 804 800 796 790 785 779 774 769 763 757 751 745 737
708 722 717 719 723 719 725 729 734 739 744 757 767 773 782 795 815 834 841 847 849 851 852 852 851 849 848 846 843 840 838 836 833 830 824 822 820 818 816 812 807 801 798 794 789 783 777 772 766 760 754 748 743 737
715 725 730 736 731 730 736 744 751 757 765 769 776 774 784 808 830 843 847 850 851 853 854 853 852 850 848 844 842 839 837 835 833 830 824 820 817 816 815 812 807 802 795 792 787 781 775 769 762 755 749 744 741 737
735 736 736 749 755 761 758 770 778 788 791 796 791 809 811 821 836 845 848 851 852 853 854 852 851 848 845 842 839 837 834 832 829 826 822 818 815 813 810 808 803 800 794 788 784 778 772 765 757 750 746 742 737 733
745 746 747 761 772 784 796 796 801 808 811 804 806 823 835 841 845 847 851 852 853 853 852 850 847 845 842 840 838 836 834 831 829 827 826 822 816 808 806 802 797 793 789 784 779 775 769 760 754 748 744 741 736 732
755 755 766 784 792 807 814 814 818 819 817 818 824 834 841 847 850 850 851 852 851 851 850 849 847 844 842 838 835 832 831 830 829 828 826 821 817 810 803 798 794 790 786 781 776 770 765 759 751 747 743 740 736 733
764 766 781 795 809 819 821 821 821 822 825 830 831 837 844 850 852 853 852 852 851 851 849 848 845 844 841 839 837 834 829 827 826 824 821 817 812 806 800 795 791 787 785 781 776 771 766 760 755 750 747 744 741 738
777 780 785 801 816 821 822 824 829 834 838 840 847 848 850 852 857 852 851 851 851 851 849 847 845 842 841 838 836 834 831 827 824 819 815 810 804 799 794 791 789 787 783 779 775 771 767 763 759 755 752 749 746 742
792 795 800 807 817 824 828 831 841 849 851 855 854 854 856 855 857 851 850 850 851 850 848 846 844 841 839 836 833 830 828 825 821 818 814 810 804 798 794 790 787 784 781 777 774 771 768 764 761 758 755 752 749 746
Wind_Speed
31 28 28 25 24 22 21 20 19 18 17 18 18 15 13 10 6 6 4 4 1 2 4 9 7 5 1 1 2 2 3 3 2 1 3 3 2 3 0 3 5 6 6 4 2 1 8 6 4 7 6 3 3 5
34 32 31 28 26 25 24 23 21 20 20 19 19 20 17 14 11 7 4 6 7 5 5 7 10 11 9 8 4 1 4 4 4 3 0 2 2 1 2 3 1 2 6 4 9 6 4 10 6 5 4 4 4 4
37 36 35 31 29 27 26 25 24 22 22 21 21 22 23 20 16 12 7 6 3 3 4 2 2 6 11 12 10 3 2 2 1 2 3 1 3 3 3 5 1 4 3 3 3 4 5 10 9 4 6 6 5 6
42 40 38 35 32 30 29 27 26 25 24 24 24 25 26 24 16 14 14 7 4 0 2 3 2 2 1 5 11 10 6 6 7 3 2 2 2 2 3 3 4 5 4 4 6 9 8 5 7 9 7 7 7 6
38 43 41 37 35 34 32 30 27 27 26 25 26 26 25 23 16 15 16 18 15 4 3 3 4 1 0 3 6 7 10 4 2 1 2 3 2 1 1 1 4 5 6 5 5 6 4 6 4 4 3 5 9 7
35 36 43 40 35 36 34 32 29 28 26 25 24 25 25 23 19 10 4 12 21 11 1 3 1 1 2 4 4 5 9 3 2 3 3 2 2 2 1 3 6 4 3 4 4 2 4 7 8 5 4 4 3 4
34 36 37 42 40 37 35 33 30 29 28 26 23 26 24 26 25 6 3 1 16 14 1 4 3 2 5 4 2 1 3 1 2 2 2 2 2 3 2 3 4 4 5 6 5 0 5 3 5 3 4 7 6 8
33 35 37 38 42 39 36 32 29 27 26 24 20 16 21 25 22 11 11 9 17 4 2 3 3 2 9 2 2 2 1 0 2 2 1 2 0 2 5 5 8 6 8 8 6 8 9 5 7 7 6 5 5 7
30 33 36 37 38 38 36 32 27 24 21 14 11 25 20 4 6 5 16 15 18 4 3 3 3 3 4 1 2 1 1 2 1 2 2 2 2 5 6 6 8 10 3 12 12 9 8 6 9 9 8 7 6 8
33 32 32 35 36 33 36 31 25 19 15 23 22 8 3 4 13 15 4 2 0 2 2 4 2 2 3 1 1 2 0 2 1 3 2 2 4 5 8 8 8 8 7 4 5 8 4 6 7 6 6 6 7 7
38 36 36 32 34 33 34 30 24 19 33 10 6 2 15 22 5 2 2 3 2 3 4 3 5 4 2 3 3 2 2 1 1 3 2 2 3 3 4 6 5 5 6 6 7 11 11 11 8 6 8 7 11 10
39 42 42 38 33 33 35 32 34 33 17 18 18 14 8 3 1 3 4 1 5 5 4 4 4 3 1 2 2 1 3 2 4 2 1 3 3 4 6 6 6 7 8 8 11 11 15 14 16 13 10 11 14 13
43 43 42 42 36 33 35 35 43 32 28 20 6 4 4 3 4 7 9 5 4 5 6 4 3 3 2 1 2 2 3 4 2 1 4 4 2 8 11 11 11 16 17 14 14 15 18 17 17 14 12 17 14 13
38 36 37 36 35 32 34 43 46 38 9 4 6 6 7 6 7 7 5 4 3 3 9 5 4 3 2 3 2 4 3 3 2 3 5 2 7 9 10 11 12 15 16 17 19 21 19 16 14 16 16 16 14 14
33 32 32 32 30 29 31 51 52 30 8 5 5 7 10 6 1 2 3 4 3 6 8 4 3 3 2 3 3 2 3 5 5 3 2 6 9 7 11 11 13 13 13 15 23 21 21 18 13 14 14 15 15 15
21 17 24 25 25 24 35 50 25 6 4 3 5 3 2 1 2 3 4 3 4 7 3 3 4 3 4 3 4 7 4 6 2 3 5 7 9 10 11 11 14 18 20 20 21 21 21 18 14 14 17 15 15 15
15 8 9 19 22 31 53 20 6 5 5 5 4 3 2 1 2 4 3 5 11 6 4 3 7 7 4 3 4 2 1 3 4 5 5 7 8 9 15 15 17 19 20 21 21 23 21 21 20 15 10 15 17 17
14 14 14 23 40 42 10 4 5 5 8 4 4 3 2 1 2 3 3 8 5 3 4 4 3 4 3 3 3 2 3 3 3 4 6 7 14 13 19 15 19 19 19 21 22 21 22 20 18 15 18 19 19 16
24 15 28 44 41 13 5 4 3 5 6 2 2 2 2 3 3 4 4 4 5 6 2 2 5 3 3 3 3 2 2 2 3 5 7 12 15 15 18 17 18 19 20 20 21 19 19 18 18 19 20 21 17 16
11 18 46 31 16 5 4 2 4 2 3 2 2 3 3 3 2 5 8 6 4 3 6 5 3 2 2 3 3 2 2 5 4 5 6 8 13 15 16 17 16 20 18 17 17 23 21 19 19 22 22 24 21 21
15 34 29 11 3 7 3 2 2 2 2 3 2 2 3 2 3 4 4 5 5 4 3 3 3 2 7 9 8 6 7 9 4 3 5 7 16 16 15 17 18 18 18 18 15 19 22 19 24 24 23 22 22 22
13 19 4 4 3 3 3 5 2 2 2 2 2 2 3 2 3 3 3 6 3 3 3 2 2 3 5 6 8 9 10 12 10 10 12 14 9 12 14 17 16 14 16 18 17 19 22 24 25 25 24 25 26 25
14 6 4 2 3 3 1 1 3 2 3 2 2 3 3 3 3 4 4 3 3 6 8 6 7 7 8 8 8 9 12 13 10 11 13 14 15 14 15 17 17 17 16 19 20 23 22 26 27 28 25 29 27 25
8 3 2 2 3 3 1 2 2 2 2 2 3 4 3 3 2 4 4 3 3 6 8 10 10 6 6 7 7 9 12 14 13 13 13 14 13 17 18 18 18 18 19 19 22 22 23 24 27 26 25 27 28 26
4 3 2 3 1 3 3 3 2 2 3 2 4 3 2 3 3 3 3 2 3 4 7 9 8 8 4 4 10 11 12 15 14 15 20 16 15 16 16 18 20 18 18 18 24 25 26 27 26 27 27 26 29 26
5 4 3 2 1 3 2 3 2 2 3 3 3 3 3 3 4 4 2 1 2 3 5 7 6 5 6 10 10 12 15 18 18 13 17 16 18 13 13 13 15 22 19 29 24 25 27 27 28 29 28 29 29 25
4 4 3 4 2 3 3 4 4 5 5 4 3 2 3 4 3 2 3 3 3 4 6 8 8 8 9 12 14 14 15 16 16 18 21 17 14 11 14 15 17 23 29 28 30 28 28 30 30 30 29 25 18 22
3 5 4 5 5 6 4 4 5 5 3 4 2 6 3 3 3 2 3 6 5 4 6 9 11 12 13 14 12 14 17 16 16 14 19 18 16 17 16 21 26 24 25 28 27 29 30 31 32 25 18 20 23 23
4 3 3 6 5 6 6 5 3 3 4 3 3 3 3 2 3 6 7 9 8 7 9 15 17 18 18 17 14 17 16 12 14 6 8 8 19 27 33 35 36 34 29 32 31 27 30 31 30 24 20 20 20 20
5 4 4 5 5 5 4 4 3 3 9 6 5 4 4 4 7 13 14 11 15 14 12 17 17 18 19 22 24 26 21 12 7 8 5 10 17 32 35 36 37 35 25 28 31 30 29 30 25 22 22 21 19 15
3 3 4 5 4 3 4 10 13 13 6 5 10 4 3 3 4 5 4 5 10 14 16 20 22 20 20 21 21 20 20 16 22 25 25 26 29 31 33 33 31 21 22 26 26 25 26 27 23 20 18 18 18 17
4 5 4 4 3 3 1 2 3 3 3 3 3 3 3 3 1 2 3 7 5 10 16 17 19 22 19 18 18 16 14 20 25 24 27 29 29 27 25 23 21 18 22 22 21 21 22 21 20 20 18 19 18 17
3 4 4 4 3 2 2 3 4 3 4 3 3 1 0 2 2 2 2 4 4 7 16 15 18 18 16 18 15 15 16 21 21 20 19 21 22 22 20 18 18 19 17 18 17 18 17 17 17 17 17 17 17 17
Wind_Direction
246 249 251 252 251 252 255 261 268 274 279 288 293 296 289 282 279 290 273 203 71 194 254 205 190 154 79 136 177 234 30 347 40 82 146 235 173 237 228 219 188 180 157 207 92 55 292 159 86 169 221 285 199 194
245 246 250 249 251 251 254 258 261 265 272 278 285 286 280 271 248 250 262 211 224 214 262 232 237 242 237 187 143 219 191 197 210 79 322 84 263 56 181 277 133 284 197 196 183 221 227 207 211 237 171 185 235 184
246 246 248 247 248 249 251 254 259 261 267 272 274 279 280 268 237 226 254 248 213 251 276 313 239 233 232 229 213 158 274 162 44 167 165 206 248 135 216 236 273 259 162 222 21 273 223 222 245 240 200 217 219 222
245 245 247 246 245 247 250 253 256 259 264 268 272 273 276 261 230 218 229 255 230 45 283 256 157 172 198 215 212 215 140 122 107 90 123 158 218 162 236 241 213 202 124 190 264 283 290 272 238 268 265 230 241 235
249 242 243 245 244 246 249 252 257 257 261 268 272 274 276 245 224 222 240 252 234 202 273 288 147 30 190 201 188 180 154 120 125 59 127 225 241 138 238 354 248 189 196 166 226 238 183 264 275 278 261 246 230 216
252 247 239 242 243 244 246 250 253 259 261 266 273 276 263 223 200 196 294 233 208 198 230 294 142 203 100 118 148 159 159 148 150 169 210 242 239 128 212 250 263 232 239 169 268 240 222 264 267 257 246 258 235 213
255 246 244 240 241 243 244 248 252 257 261 264 272 278 246 203 197 184 206 176 183 187 216 292 276 167 142 136 167 143 178 205 153 224 223 208 246 152 168 245 272 307 297 281 238 53 291 214 255 278 246 281 289 267
258 249 246 245 239 240 242 245 248 253 261 267 276 269 200 184 196 231 248 177 170 172 187 247 261 249 177 165 190 180 149 93 233 232 303 200 221 191 252 261 288 282 295 281 262 216 244 276 288 270 259 263 270 264
264 258 251 250 247 241 235 239 242 249 256 267 186 163 146 173 196 172 163 179 182 194 230 182 195 245 149 152 105 51 130 204 258 241 249 139 206 229 237 259 294 298 253 287 302 284 270 258 271 262 254 266 253 268
261 260 257 251 250 242 230 230 234 238 216 182 147 152 195 169 142 144 113 101 98 242 233 233 114 231 122 104 253 103 79 216 238 241 115 214 257 259 260 261 266 281 272 296 321 326 314 283 272 272 250 254 236 250
263 261 262 262 250 242 226 219 218 178 163 158 143 95 123 149 131 134 163 209 160 243 208 211 185 155 208 138 199 207 178 161 12 263 174 252 268 250 295 308 320 321 306 284 249 270 272 265 274 278 284 260 268 263
268 261 259 260 251 240 227 208 187 182 179 184 135 114 142 168 144 206 204 158 210 240 178 176 176 181 142 122 111 240 145 86 244 141 181 257 253 270 304 311 307 310 307 291 290 283 286 269 260 262 268 271 268 260
270 262 261 253 252 239 236 209 188 184 153 127 99 113 157 159 200 202 197 215 221 189 169 166 139 130 114 180 107 131 139 218 107 195 234 228 327 359 355 345 340 349 339 320 308 299 286 278 282 266 273 282 277 269
262 260 255 249 242 236 227 194 177 157 134 142 153 180 201 184 230 201 194 177 178 121 134 125 115 137 144 154 146 169 198 123 231 240 230 40 352 343 358 345 346 342 345 337 331 327 314 295 285 292 282 280 281 275
260 257 255 249 240 230 219 188 181 165 148 165 179 213 206 217 192 225 140 123 100 134 131 103 90 106 146 164 189 125 164 237 215 244 63 350 341 355 347 348 347 344 343 341 340 337 328 311 293 289 293 292 283 282
257 260 246 236 226 215 192 163 158 159 124 196 218 223 203 131 182 173 175 117 142 145 106 109 128 148 202 169 158 210 186 225 91 18 357 336 348 350 348 339 346 345 341 337 337 338 339 342 336 325 320 316 307 300
227 230 222 211 186 171 161 143 144 184 217 213 231 221 203 358 168 160 148 147 152 145 163 140 174 198 119 183 219 171 337 45 336 350 336 329 353 345 344 337 346 345 342 338 341 340 335 335 336 332 328 330 327 322
213 213 190 165 147 139 140 131 151 190 229 215 211 180 169 83 118 100 86 139 146 186 145 194 126 185 189 202 118 49 22 354 347 332 313 334 340 349 341 331 344 339 339 339 341 337 344 350 346 345 341 335 324 315
227 203 170 164 148 137 150 183 190 215 212 149 106 84 74 96 43 79 103 104 92 63 74 32 56 50 74 58 52 38 23 6 317 319 313 341 335 347 336 342 343 342 342 342 343 342 337 344 337 335 332 325 319 330
231 191 160 149 150 113 122 154 195 219 168 128 78 65 62 65 53 57 46 35 43 42 44 42 53 50 43 64 57 59 24 334 323 331 341 338 344 342 343 345 344 341 339 340 347 347 344 339 338 334 329 332 333 322
140 157 158 136 86 66 74 125 94 44 87 77 72 64 69 39 59 47 43 12 58 34 68 46 39 16 67 72 64 56 26 3 348 339 323 336 342 334 337 343 344 347 345 338 336 340 338 331 325 324 328 327 320 319
132 144 98 63 90 84 82 15 87 63 73 101 88 74 77 61 52 46 68 48 58 38 29 20 354 344 59 45 40 36 17 358 348 342 345 348 337 340 339 337 336 335 333 334 331 335 327 325 327 331 331 327 326 320
122 91 81 121 97 59 46 336 94 24 108 125 99 87 62 71 74 99 75 67 83 33 21 18 2 46 53 34 31 28 18 3 352 346 339 334 329 332 332 331 332 330 331 332 333 330 325 328 330 332 335 336 330 323
116 77 81 78 58 122 110 68 76 93 107 103 86 101 88 103 103 63 76 70 61 39 28 17 18 22 21 20 17 7 3 354 341 337 338 333 330 331 331 323 326 323 328 327 331 327 326 326 329 326 333 333 329 327
114 22 73 83 68 116 106 111 97 97 95 98 110 111 96 80 77 68 79 106 63 41 28 16 21 18 7 349 346 346 355 356 342 327 326 336 329 327 330 333 331 327 333 331 328 326 324 325 324 325 323 324 324 328
80 12 28 57 40 91 91 96 85 95 88 76 70 95 63 77 71 72 82 97 79 47 26 14 1 351 351 350 329 330 334 344 339 320 320 331 328 317 308 321 323 326 335 331 318 319 317 318 318 315 316 317 321 333
90 46 55 24 7 66 85 66 44 55 56 52 24 50 77 71 82 100 115 56 101 77 49 23 8 354 333 324 330 335 338 342 339 322 322 326 334 331 317 301 302 311 329 321 322 321 314 313 310 308 308 310 320 323
66 25 65 11 60 16 65 53 38 40 40 348 30 39 65 51 104 100 103 129 106 82 54 25 21 9 356 353 346 346 345 345 343 349 360 355 357 347 345 333 330 323 324 331 327 322 316 311 309 317 325 331 323 325
47 4 84 61 62 48 37 25 57 43 351 346 77 82 86 60 43 114 113 109 98 68 33 15 16 5 7 9 8 3 357 351 345 346 346 329 330 331 339 337 340 342 336 333 335 333 330 331 336 331 339 334 335 336
29 12 88 55 50 49 28 19 68 32 35 56 95 98 79 72 76 121 120 88 58 48 34 19 11 3 358 354 348 350 1 360 340 316 287 301 301 319 327 327 327 330 332 335 337 329 341 344 353 356 354 354 355 5
354 84 77 58 77 54 109 108 85 65 53 42 41 68 92 131 123 151 141 84 43 28 18 6 2 5 357 348 342 334 326 343 338 330 323 312 312 317 318 321 325 326 337 339 343 345 344 354 355 359 9 16 20 24
31 29 107 102 111 134 153 48 49 58 26 41 18 39 24 55 37 234 255 238 281 359 3 354 353 344 345 341 338 334 317 320 329 335 337 332 323 323 318 318 329 332 336 344 352 353 355 3 8 13 12 16 19 21
56 40 55 99 106 116 48 87 33 59 34 38 18 30 109 141 176 253 270 248 250 341 349 341 338 337 338 344 344 349 344 346 344 337 340 343 345 356 6 354 346 341 346 353 354 348 356 1 4 6 8 8 8 7